Location: Civís
(42.4648°N, 1.4232°E)
Time: 16:57:14
(UTC+00:00)

Cosmos 1441 Rocket - Pass Details

Date: 24 November 2025
Orbit: 425 x 449 km, 81.1° (Epoch: 04 December)

Event Time Altitude Azimuth Distance (km) Brightness Sun altitude
Exits shadow 05:39:38 10° 344° (NNW) 1,513 5.3 -14.0°
Drops below altitude 10° 05:39:40 10° 344° (NNW) 1,525 5.3 -14.0°
Sets 05:41:57 0° 358° (N) 2,397 6.4 -13.6°
